Regional Weather Roundup
Issued by NWS

Home | Current Version | Previous Version | Text Only | Print | Product List | Glossary Off
Versions: 1 2 3 4 5 6 7 8 9 10 11 12 13 14 15 16 17 18 19 20 21 22 23 24 25 26 27 28 29 30 31 32 33 34 35 36 37 38 39 40 41 42 43 44 45 46 47 48 49 50

000
ASUS43 KIND 031709
RWRIN

WEATHER ROUNDUP FOR INDIANA
NATIONAL WEATHER SERVICE INDIANAPOLIS IN
1200 PM EST SAT DEC 03 2016

NOTE: "FAIR" INDICATES FEW OR NO CLOUDS BELOW 12,000 FEET WITH NO
SIGNIFICANT WEATHER AND/OR OBSTRUCTIONS TO VISIBILITY.

* - STATION DOES NOT REPORT WEATHER SUCH AS PRECIPITATION OR FOG.

+ - STATION NOT QUALITY CONTROLLED BY THE NATIONAL WEATHER SERVICE.
    USE DATA WITH CAUTION...ESPECIALLY DEWPOINT AND RELATIVE
    HUMIDITY OBSERVATIONS.

INZ001>003-010>013-019-020-031800-
NORTHWEST INDIANA

CITY           SKY/WX    TMP DP  RH WIND       PRES   REMARKS
GARY /AIRPORT/ CLOUDY    36  23  60 W7        30.36R
KNOX *+        SUNNY     36   5  27 CALM      30.33S
LA PORTE +     CLOUDY    38  28  65 CALM      30.32F
MICHIGAN CITY+ CLOUDY    36  27  69 SW6       30.33S
MONTICELLO +   CLOUDY    35  21  57 CALM      30.35R
RENSSELAER +   CLOUDY    34  28  80 CALM      30.36R
VALPARAISO     PTSUNNY   38  24  57 NW5       30.33F

$$

LMZ046-743>745-031800-
SOUTHERN LAKE MICHIGAN

STATION/POSITION TIME  TEMP    WIND        PRES    WAVE
                       AIR SEA DIR/SP/G            HT
                 (UTC) (F)     (DEG/KT/KT) (MB)    (FT)
BURNS HARBOR     1640   35     270/  7/  9 1027.8R
MICHIGAN CITY    1640   35     210/  4/  8   N/A

$$

INZ004-005-014>016-021>024-031800-
NORTH CENTRAL INDIANA

CITY           SKY/WX    TMP DP  RH WIND       PRES   REMARKS
ELKHART        CLOUDY    36  27  69 W6        30.31F
GOSHEN         CLOUDY    36  27  69 W5        30.30F
LOGANSPORT +   CLOUDY    34  27  75 CALM      30.35S
PERU/GRISSOM   CLOUDY    36  26  67 CALM      30.33R
ROCHESTER +    CLOUDY    37  30  75 SW6       30.34R
SOUTH BEND     CLOUDY    35  25  66 W3        30.31F
WARSAW +       CLOUDY    34  27  75 CALM      30.31F

$$

INZ006>009-017-018-025>027-031800-
NORTHEAST INDIANA

CITY           SKY/WX    TMP DP  RH WIND       PRES   REMARKS
ANGOLA *+      CLOUDY    37  28  70 W3        30.28F
AUBURN +       CLOUDY    36  28  75 W3        30.30F
FORT WAYNE     CLOUDY    37  26  64 SW6       30.33R
HUNTINGTON +   CLOUDY    36  24  62 SW5       30.34R
KENDALLVILLE + CLOUDY    35  28  75 W5        30.30F WCI  31

$$

INZ028-029-035-036-043>045-051>053-031800-
WEST CENTRAL INDIANA

CITY           SKY/WX    TMP DP  RH WIND       PRES   REMARKS
CRAWFORDSVL +  CLOUDY    35  27  74 W9        30.35F WCI  27
GREENCASTLE +  CLOUDY    36  30  80 W3        30.36S
LAFAYETTE      CLOUDY    35  27  72 CALM      30.35R
TERRE HAUTE    CLOUDY    39  27  62 N6        30.38F

$$

INZ030>032-037>040-046>048-054>057-064-065-031800-
CENTRAL INDIANA

CITY           SKY/WX    TMP DP  RH WIND       PRES   REMARKS
CP ATTERBURY + CLOUDY    37  30  75 NW8       30.36F
COLUMBUS       CLOUDY    37  30  75 W5        30.36F
FRANKFORT +    CLOUDY    37  29  72 CALM      30.35F
GREENWOOD *+   CLOUDY    38  29  69 NW6       30.35F
INDIANAPOLIS   CLOUDY    38  27  64 NW7       30.35F
-EAGLE CREEK   CLOUDY    38  27  64 NW9       30.34F
KOKOMO +       CLOUDY    36  26  67 CALM      30.35R
MARION +       CLOUDY    36  26  68 W5        30.34S
MT COMFORT *+  CLOUDY    37  28  70 W5        30.33F
SHELBYVILLE    CLOUDY    39  29  67 NW7       30.34S
ZIONSVILLE +   CLOUDY    35  27  72 W3        30.34F

$$

INZ033-034-041-042-049-050-058-059-031800-
EAST CENTRAL INDIANA

CITY           SKY/WX    TMP DP  RH WIND       PRES   REMARKS
MUNCIE         CLOUDY    39  25  57 CALM      30.33R

$$

INZ060-061-067>069-081>083-085>088-031800-
SOUTHWEST INDIANA

CITY           SKY/WX    TMP DP  RH WIND       PRES   REMARKS
EVANSVILLE     CLOUDY    44  30  57 CALM      30.39S
HUNTINGBURG *+ CLOUDY    43  28  56 N5        30.38S
WASHINGTON +   CLOUDY    41  33  72 N5        30.38R

$$

INZ062-063-066-070>080-084-089>092-031800-
SOUTH CENTRAL AND SOUTHEAST INDIANA

CITY           SKY/WX    TMP DP  RH WIND       PRES   REMARKS
BLOOMINGTON    CLOUDY    40  27  59 VRB6      30.35F
MADISON *+     CLOUDY    41  28  60 NW5       30.36F
NORTH VERNON + CLOUDY    41  32  70 CALM      30.36S
SEYMOUR +      CLOUDY    43  28  56 W5        30.36F

$$




USA.gov is the U.S. government's official web portal to all federal, state and local government web resources and services.